Hourly Data Report for July 13, 2017

QUALICUM BEACH AIRPORT
BRITISH COLUMBIA

49°20'14.000" N
124°23'38.000" W
58.20 m
1026562
71766
VOQ

Download Data

Hourly Data (July 2017)
Hourly Data Report for July 13, 2017
TIME
LST
Temp Definition
°C
Dew Point Definition
°C
Rel Hum Definition
%
Precip. Amount Definition
mm

Wind Dir Definition
10's deg

Wind Spd Definition
km/h
Visibility Definition
km
Stn Press Definition
kPa
Hmdx Definition


Wind Chill Definition


Weather Definition


00:00 15.4 11.8 79 0.0 25 2   100.76     LegendNANA
01:00 14.8 11.6 81 0.0 28 4   100.79     LegendNANA
02:00 14.8 11.0 78 0.0 25 4   100.81     LegendNANA
03:00 12.3 10.8 91 0.0 27 1   100.85     LegendNANA
04:00 12.5 10.6 88 0.0 22 2   100.89     LegendNANA
05:00 12.3 10.3 88 0.0 24 4   100.94     LegendNANA
06:00 14.1 11.4 84 0.0 17 2   100.98     LegendNANA
07:00 17.7 9.9 60 0.0 15 2   101.02     LegendNANA
08:00 19.3 9.4 53 0.0 13 5   101.06     LegendNANA
09:00 18.3 9.3 56 0.0 11 11   101.10     LegendNANA
10:00 19.0 8.9 52 0.0 9 8   101.17     LegendNANA
11:00 19.3 9.4 53 0.0 4 6   101.21     LegendNANA
12:00 19.1 8.7 51 0.0 7 8   101.23     LegendNANA
13:00 19.6 9.4 52 0.0 2 4   101.29     LegendNANA
14:00 18.4 13.6 73 0.0 9 11   101.30     LegendNANA
15:00 19.1 13.5 70 0.0 5 5   101.31     LegendNANA
16:00 19.9 12.7 63 0.0 36 8   101.29     LegendNANA
17:00 19.6 13.4 68 0.0 4 6   101.28     LegendNANA
18:00 19.4 13.0 67 0.0 34 8   101.23     LegendNANA
19:00 19.3 10.3 56 0.0 32 10   101.23     LegendNANA
20:00 18.3 10.5 61 0.0 33 5   101.24     LegendNANA
21:00 16.8 8.7 59 0.0 28 8   101.28     LegendNANA
22:00 15.7 8.7 63 0.0 28 7   101.30     LegendNANA
23:00 15.1 8.7 66 0.0 27 7   101.33     LegendNANA

Notes on Data Quality.

Legend

  • E = Estimated
  • M = Missing
  • NA = Not Available*
  • [empty] = Indicates an unobserved value
Date modified: